Smyrna, TN (MQY)

CessnaPCRedbird FMX


Wings of Eagles Aviation started in Smyrna (MQY) in 1998 as a small flight school. The Smyrna Airport is the third largest airport in the state of Tennessee and the busiest general aviation airport. With its longest runway being just over 8,000 feet and having its own air traffic control tower, this is the best possible training environment for all pilots. Once you learn how to fly here, you will be confident no matter where your aviation adventures take you.

Address:
276 Doug Warpoole Rd.
Smyrna, TN 37167

Phone: (615) 355-0033

Business Hours:
Monday-Sunday 7a-10p


NOAA Weather – KMQY

Smyrna, Smyrna Airport, TN

Last Updated on Jul 31 2015, 7:56 pm CDT

Current Conditions: Fair

NOAA Icon

Temp: 83°F

Wind: North at 4mph

Humidity: 56%

Heat Index: 85°F

Your 5-Day Forecast at a Glance

Available data for KMQY from the past hour

METAR
KMQY 010056Z 36004KT 10SM CLR 28/19 A3002 RMK AO2 T02830188 SLP169